Wind_Speed
19 15 15 16 14 15 16 17 15 11 9 10 9 9 11 14 15 15 18 21 22 17 21 18 22 16 15 17 16 15 18 15 14 18 21 23 26 24 21 20 20 20 23 25 28 31 31 33 37
21 14 16 19 15 12 17 15 16 15 10 12 11 11 12 13 13 17 22 18 17 15 17 19 18 16 17 17 14 14 14 9 14 17 24 21 21 23 24 24 26 25 24 27 29 26 26 29 32
24 16 15 17 22 18 17 16 12 14 15 14 16 15 15 18 19 17 20 21 17 12 15 10 18 18 18 16 15 14 16 17 20 21 20 21 21 22 25 29 31 30 31 27 23 24 25 29 30
22 19 15 16 19 22 17 20 21 17 15 15 18 21 20 21 16 19 23 22 22 12 12 13 16 24 22 21 19 21 21 23 24 23 24 24 23 24 26 29 32 33 33 35 35 35 32 38 32
23 19 13 13 18 24 22 22 22 25 22 20 20 22 25 24 23 22 23 23 20 16 15 17 18 21 25 23 23 23 25 24 24 24 25 27 27 28 31 33 33 36 38 40 38 39 39 40 34
24 22 16 18 18 23 26 22 24 28 30 28 27 25 24 23 25 25 25 21 22 19 20 16 21 22 26 29 28 27 21 23 25 27 28 28 31 34 35 34 38 42 42 42 40 42 41 39 37
26 24 23 20 16 18 24 23 23 26 33 33 31 31 32 29 27 25 28 21 26 27 17 17 19 20 23 26 28 25 24 27 29 30 30 32 35 39 41 41 41 42 41 42 41 46 42 39 39
26 23 22 16 12 14 21 26 25 28 32 35 30 30 31 34 28 24 30 27 28 27 23 20 19 19 20 25 25 25 27 29 29 30 33 35 36 39 40 47 49 45 52 44 49 47 47 51 42
25 23 21 17 10 17 20 24 28 29 31 30 36 34 25 34 31 26 27 29 27 25 19 19 23 24 26 26 26 29 29 31 33 34 37 39 39 44 49 49 52 52 46 47 47 44 44 53 44
26 25 21 20 16 12 18 20 23 30 33 32 29 27 26 31 35 34 29 29 29 26 24 27 30 29 28 30 30 32 34 36 36 35 37 38 39 42 41 46 50 45 48 46 32 41 45 43 43
26 24 23 19 20 16 11 21 25 26 28 33 26 25 26 31 30 32 33 31 32 28 31 32 30 32 30 25 29 27 29 30 34 36 32 39 38 43 44 45 42 48 42 32 33 28 34 38 33
24 24 22 19 22 20 16 14 24 29 33 28 28 29 28 34 35 32 33 34 35 38 36 36 36 32 27 29 31 31 32 38 40 40 40 46 47 49 44 44 37 38 37 34 31 26 34 36 36
25 22 21 22 25 23 22 21 18 16 17 24 28 29 30 30 32 35 35 38 33 33 34 36 39 35 33 30 30 35 40 41 42 44 46 47 50 52 53 53 40 44 43 33 32 32 35 41 44
24 22 20 21 22 24 26 24 22 18 14 16 18 22 25 27 27 25 29 26 26 28 30 33 35 37 34 35 39 39 41 40 41 40 42 43 46 52 56 55 46 40 37 33 32 33 31 40 44
30 28 25 23 21 20 24 29 23 25 25 19 19 19 17 18 19 19 23 25 27 30 30 32 34 37 37 39 42 48 53 53 45 42 46 46 45 54 55 50 57 47 41 36 36 34 34 43 44
31 29 28 27 24 22 25 32 29 27 27 28 23 18 21 22 22 23 29 30 33 33 35 36 40 42 43 46 50 48 51 51 51 52 51 55 58 58 56 59 59 53 48 45 37 47 44 52 52
33 32 29 31 29 23 30 36 30 23 22 24 25 28 25 25 28 34 33 36 39 43 44 47 48 46 49 54 56 57 57 58 57 57 61 69 68 65 68 71 71 65 55 49 56 54 50 58 64
32 32 33 29 33 30 30 39 41 33 32 29 30 33 34 35 35 38 40 40 42 47 51 53 55 56 58 62 65 67 68 72 71 66 67 75 73 70 77 79 77 77 64 56 63 71 69 70 75
29 31 36 33 27 32 36 35 42 43 38 42 45 42 40 42 42 44 45 45 51 52 53 54 55 66 71 74 74 76 79 78 76 78 79 80 82 84 85 85 82 83 70 64 69 71 73 70 77
33 33 32 34 29 26 34 35 40 43 42 41 41 40 41 45 46 48 48 51 54 56 58 64 70 77 82 84 82 80 80 86 85 82 85 89 89 88 87 90 89 91 82 70 65 73 72 76 81
32 35 34 30 35 29 28 36 36 38 40 45 48 48 51 54 57 56 56 58 60 62 63 65 70 77 84 86 88 90 93 93 92 88 95 97 92 95 95 92 93 93 89 80 79 81 80 79 82
39 40 35 36 32 34 28 26 38 38 41 44 47 50 51 50 52 55 57 61 61 66 72 73 74 81 83 85 96 100 97 99 98 96 95 94 98 101 98 101 91 83 85 82 85 85 78 81 86
45 49 44 35 40 34 40 44 40 38 48 54 59 63 63 66 67 61 61 65 68 71 72 77 79 89 91 90 93 93 101 102 102 107 109 108 106 88 113 104 92 84 83 76 81 81 88 80 87
45 48 51 49 43 39 43 52 56 53 56 57 56 59 59 62 65 68 70 74 76 87 89 89 93 102 100 102 105 104 113 108 111 112 109 112 112 110 113 106 94 87 80 64 70 105 101 94 92
48 54 53 54 57 58 56 48 50 46 56 66 67 72 67 71 74 74 71 80 86 87 93 98 107 110 107 111 122 117 110 101 106 108 109 111 111 114 110 106 100 96 84 84 75 102 94 100 98
48 55 56 57 62 63 64 60 58 66 68 61 54 61 66 75 84 86 87 89 90 94 98 105 115 121 126 128 124 121 112 106 108 112 113 118 120 119 116 111 107 102 98 87 96 88 83 96 104
49 53 57 62 68 62 61 62 65 65 72 69 70 76 80 86 90 91 93 97 101 111 123 127 116 113 115 115 117 117 115 117 118 118 120 117 116 114 113 116 110 106 110 102 102 103 97 102 110
54 54 58 61 59 54 61 63 65 65 68 73 75 80 87 92 96 100 108 117 125 128 116 115 120 120 115 125 121 113 113 113 114 118 118 116 110 108 109 109 110 97 102 105 119 122 119 114 116
57 57 63 70 64 66 65 63 70 76 82 79 82 90 98 102 105 112 122 130 135 124 128 123 125 120 120 110 104 101 98 97 98 98 101 101 99 97 99 100 106 103 96 95 97 111 110 115 115
65 60 66 67 73 72 73 73 72 82 86 91 92 101 104 107 114 123 131 133 130 125 122 120 112 105 96 93 87 84 82 83 84 86 84 85 87 89 89 92 99 97 94 87 86 85 99 99 91
Wind_Direction
305 289 284 271 287 262 262 269 284 310 297 300 299 304 314 313 311 309 303 302 309 321 325 320 308 297 279 280 282 277 284 283 243 255 259 265 270 271 274 277 279 282 282 286 287 285 286 281 278
303 287 288 268 272 279 270 268 274 290 282 288 281 285 298 298 296 291 297 308 321 324 330 315 290 266 249 259 258 251 254 235 250 261 263 270 273 267 273 277 287 282 287 284 279 284 291 291 292
307 297 294 270 270 271 277 272 272 280 285 277 279 281 284 286 278 275 286 290 304 307 297 292 258 238 237 237 239 229 218 252 268 272 291 283 291 295 297 296 299 300 297 305 304 291 301 303 293
305 302 301 298 266 269 270 277 274 275 268 273 268 273 268 263 273 289 284 283 287 275 293 261 242 234 236 249 259 256 255 267 276 279 280 277 282 293 299 304 309 313 315 318 314 311 312 312 306
307 301 302 317 272 262 269 272 278 276 272 264 255 261 274 275 273 281 290 282 263 261 254 269 257 256 248 267 271 271 274 274 277 280 284 284 285 295 299 305 304 307 312 313 320 318 313 313 312
305 306 311 321 291 264 266 273 278 281 275 274 270 266 269 266 264 267 271 284 263 255 261 265 260 270 265 270 271 270 267 274 278 278 286 296 294 297 307 307 308 310 307 317 317 315 316 312 307
303 308 321 322 294 282 266 262 281 281 277 274 281 284 288 281 278 272 272 262 257 258 256 264 277 283 283 279 271 271 279 290 287 288 292 298 300 298 305 307 308 312 312 311 317 313 311 308 305
303 312 328 337 297 291 267 259 260 270 272 275 278 285 289 290 277 266 269 256 248 256 260 262 273 280 280 281 283 294 287 286 288 286 287 291 294 301 305 309 310 309 312 315 317 309 308 302 296
311 312 329 327 310 278 275 262 254 256 264 262 269 277 284 286 283 271 264 264 259 252 248 259 271 273 280 284 287 284 289 291 289 290 295 300 305 304 304 305 305 309 311 317 310 304 308 299 293
309 317 323 323 315 276 265 265 266 263 264 263 261 268 282 287 287 284 274 263 251 256 246 254 261 276 284 288 288 292 295 295 292 293 303 313 311 308 308 306 307 306 311 319 308 311 300 295 290
312 317 316 325 317 305 290 278 273 274 266 261 261 254 259 262 272 280 276 275 253 260 257 262 271 283 282 288 295 301 304 314 310 301 312 323 322 317 313 311 312 314 316 303 300 306 300 296 294
315 310 306 321 314 314 305 301 284 272 273 264 263 268 257 257 259 266 273 280 269 269 268 271 275 280 280 281 287 290 308 304 303 308 303 319 317 319 323 312 311 311 306 286 287 296 299 293 288
311 311 304 302 307 306 301 303 302 297 293 271 259 264 260 259 264 269 276 279 269 264 268 272 274 279 279 283 285 289 292 293 292 297 300 316 320 316 314 314 304 307 299 286 279 285 301 286 283
306 302 291 296 300 296 295 301 309 306 294 295 282 266 268 265 257 245 254 263 275 279 274 272 275 278 280 279 285 289 294 298 297 294 296 299 314 310 303 304 307 301 285 279 271 294 278 273 277
310 301 299 286 288 292 282 288 297 299 293 283 274 276 260 259 268 271 275 279 287 293 295 289 286 280 282 282 279 287 287 293 299 298 289 301 307 308 299 305 310 303 281 265 255 287 291 274 271
315 307 301 297 287 288 282 285 279 283 276 271 270 261 265 266 262 274 286 284 286 288 288 291 287 287 286 284 285 293 287 289 291 292 293 299 304 301 305 305 306 305 288 263 246 280 290 259 261
310 307 289 291 290 287 290 283 281 265 266 259 253 252 252 253 256 279 280 281 283 287 287 288 291 292 291 290 291 290 290 292 291 293 290 294 297 300 304 306 306 301 291 268 274 267 273 256 256
305 303 301 291 283 280 279 283 285 271 265 262 275 270 270 270 275 277 275 277 279 281 283 285 286 286 289 290 285 284 285 287 288 287 286 297 292 295 297 298 300 302 290 269 271 271 271 259 261
304 308 307 297 288 283 278 279 282 282 275 269 275 274 263 262 268 272 272 269 282 281 282 282 286 291 295 292 291 285 286 286 287 284 287 290 291 292 290 292 294 297 291 269 270 263 267 263 262
314 302 307 293 291 280 278 278 273 276 270 273 280 277 276 278 275 271 264 265 269 272 280 288 287 290 290 289 287 286 281 284 283 283 282 285 287 288 291 291 291 297 297 272 265 261 266 269 271
304 304 301 291 292 287 275 275 280 279 272 283 286 283 281 283 281 283 281 279 277 277 277 278 285 290 287 283 283 281 280 285 283 278 283 285 285 286 286 289 288 290 291 280 268 268 266 266 270
291 298 292 287 291 288 290 287 283 279 278 285 289 288 288 285 284 285 285 285 286 282 277 279 280 284 291 289 286 283 285 281 284 281 283 283 283 284 282 284 283 284 284 280 276 271 266 272 272
296 293 290 296 282 278 279 285 289 281 284 287 288 289 289 290 291 288 285 284 283 281 277 274 281 289 286 286 279 282 282 281 284 286 284 284 281 276 279 285 281 273 278 267 277 268 270 264 265
296 298 291 292 296 294 287 287 289 284 285 287 291 293 295 298 288 280 286 284 286 282 285 280 288 296 293 294 293 285 291 285 283 282 278 280 281 278 278 278 275 277 270 253 260 259 264 262 264
295 293 292 294 295 294 292 294 291 293 295 288 287 292 290 291 302 302 295 291 294 294 291 291 296 288 290 292 294 290 286 278 276 276 275 277 274 275 275 271 267 267 247 259 249 258 256 263 263
296 295 298 299 296 296 297 298 287 294 296 299 294 297 298 302 305 306 305 301 299 299 298 297 298 296 292 292 291 286 287 280 277 275 273 273 272 269 266 265 262 259 258 249 251 251 261 259 260
303 300 299 303 299 300 301 298 294 292 296 302 306 310 301 306 307 305 304 307 304 305 300 298 299 296 294 289 287 284 280 281 280 278 276 273 268 266 267 268 262 253 247 242 237 245 246 251 258
301 297 299 301 299 297 305 297 294 311 310 305 307 308 310 307 310 313 312 309 307 305 304 303 299 298 292 292 287 279 276 276 276 274 272 270 264 263 266 264 265 257 250 243 240 242 245 251 255
300 298 301 296 304 306 314 308 302 302 310 312 309 314 313 317 318 313 312 310 313 306 304 301 298 296 296 291 282 279 278 278 275 274 270 267 264 264 262 260 259 260 254 250 246 243 244 246 250
300 292 301 306 306 304 301 314 301 306 306 308 310 311 318 316 314 310 313 317 318 311 307 304 299 297 294 291 286 283 281 278 274 272 269 265 263 261 259 259 256 256 253 245 241 240 242 240 240
Height
10812 10811 10809 10808 10807 10804 10803 10802 10801 10802 10800 10798 10798 10799 10800 10800 10800 10799 10800 10800 10800 10800 10800 10800 10801 10801 10800 10800 10801 10801 10800 10800 10799 10799 10799 10799 10799 10798 10795 10793 10790 10787 10786 10784 10782 10781 10781 10780 10779
10808 10807 10806 10805 10804 10801 10800 10798 10799 10799 10797 10796 10795 10795 10797 10797 10797 10796 10795 10795 10796 10797 10798 10798 10799 10800 10799 10798 10799 10798 10798 10797 10796 10796 10795 10796 10795 10793 10790 10787 10785 10783 10781 10780 10777 10776 10774 10773 10772
10804 10803 10803 10801 10800 10797 10797 10796 10795 10793 10795 10795 10794 10794 10795 10795 10794 10795 10794 10793 10794 10795 10796 10797 10798 10799 10797 10797 10796 10795 10794 10793 10792 10792 10792 10791 10789 10787 10785 10782 10781 10779 10778 10775 10774 10772 10769 10768 10765
10801 10799 10799 10798 10796 10793 10793 10792 10792 10790 10790 10791 10792 10791 10791 10790 10792 10794 10794 10793 10793 10793 10794 10795 10795 10795 10796 10794 10794 10794 10793 10792 10791 10788 10785 10784 10784 10782 10780 10778 10775 10773 10771 10770 10769 10765 10762 10760 10759
10797 10796 10796 10795 10792 10790 10789 10788 10787 10787 10787 10786 10787 10788 10788 10789 10790 10790 10789 10790 10790 10791 10790 10791 10791 10791 10791 10791 10790 10788 10788 10786 10785 10783 10781 10780 10779 10778 10775 10773 10771 10769 10767 10764 10761 10758 10756 10753 10750
10793 10791 10792 10791 10789 10787 10786 10786 10784 10784 10782 10782 10782 10782 10783 10784 10785 10785 10784 10786 10787 10787 10786 10786 10787 10787 10787 10785 10785 10784 10782 10780 10778 10777 10777 10776 10775 10772 10770 10768 10765 10763 10759 10757 10755 10751 10747 10746 10744
10790 10788 10787 10786 10785 10785 10782 10783 10782 10780 10778 10778 10777 10779 10779 10779 10780 10780 10779 10781 10783 10782 10782 10782 10782 10781 10780 10780 10778 10778 10776 10775 10773 10772 10770 10770 10768 10765 10763 10760 10758 10756 10754 10752 10748 10743 10740 10737 10737
10786 10785 10784 10783 10781 10781 10778 10777 10778 10776 10773 10773 10773 10774 10775 10774 10774 10775 10775 10775 10776 10777 10778 10776 10775 10773 10773 10772 10772 10771 10768 10767 10765 10763 10763 10761 10760 10758 10756 10753 10750 10748 10745 10742 10737 10736 10732 10729 10728
10782 10781 10780 10778 10778 10777 10774 10772 10771 10771 10769 10770 10769 10771 10770 10768 10768 10768 10768 10769 10771 10772 10772 10772 10769 10766 10766 10765 10764 10762 10761 10760 10759 10758 10756 10754 10753 10751 10750 10747 10743 10742 10737 10733 10729 10728 10725 10720 10719
10778 10777 10775 10773 10772 10772 10769 10767 10768 10766 10765 10765 10765 10766 10766 10764 10762 10761 10761 10762 10763 10764 10764 10762 10761 10760 10757 10758 10754 10753 10752 10752 10752 10751 10749 10747 10745 10743 10741 10739 10736 10731 10728 10725 10724 10722 10714 10712 10711
10773 10772 10771 10770 10767 10767 10767 10765 10762 10761 10759 10759 10760 10761 10757 10757 10755 10755 10754 10754 10755 10756 10755 10754 10754 10753 10751 10749 10747 10745 10745 10744 10742 10741 10740 10738 10736 10735 10731 10727 10724 10720 10718 10718 10718 10714 10710 10707 10704
10769 10768 10766 10766 10764 10762 10762 10760 10756 10754 10752 10754 10755 10753 10753 10749 10747 10747 10746 10746 10746 10746 10746 10745 10745 10743 10742 10740 10738 10737 10736 10735 10733 10731 10729 10728 10726 10725 10723 10721 10717 10712 10711 10710 10710 10708 10706 10703 10699
10764 10764 10762 10761 10760 10757 10755 10754 10753 10750 10747 10747 10747 10746 10745 10745 10742 10741 10741 10740 10738 10736 10736 10737 10736 10733 10731 10729 10728 10728 10727 10726 10725 10722 10720 10718 10716 10713 10711 10711 10711 10707 10703 10701 10700 10701 10699 10696 10692
10759 10758 10757 10756 10755 10752 10749 10748 10747 10746 10744 10743 10741 10740 10738 10737 10736 10735 10734 10732 10731 10729 10728 10727 10726 10724 10722 10719 10718 10716 10715 10714 10712 10710 10708 10707 10705 10703 10701 10698 10700 10697 10694 10693 10692 10691 10689 10687 10684
10753 10751 10750 10750 10749 10748 10745 10741 10743 10741 10740 10738 10735 10733 10732 10731 10729 10728 10726 10725 10723 10721 10719 10718 10716 10714 10712 10710 10708 10707 10704 10704 10700 10698 10695 10696 10695 10693 10691 10689 10687 10686 10683 10682 10683 10681 10679 10675 10675
10747 10744 10743 10743 10743 10743 10740 10734 10737 10735 10733 10732 10732 10730 10728 10725 10723 10721 10720 10718 10717 10714 10711 10708 10706 10702 10700 10698 10697 10694 10691 10690 10688 10685 10683 10681 10682 10678 10676 10674 10675 10677 10673 10672 10672 10671 10669 10666 10663
10742 10737 10734 10735 10736 10737 10734 10725 10728 10729 10726 10723 10724 10723 10722 10721 10719 10717 10715 10713 10710 10705 10700 10696 10693 10690 10687 10685 10682 10680 10678 10677 10673 10671 10669 10666 10663 10663 10660 10658 10658 10661 10661 10659 10657 10656 10656 10653 10645
10737 10732 10728 10729 10729 10730 10727 10722 10714 10721 10719 10718 10717 10718 10717 10716 10714 10711 10707 10703 10698 10694 10689 10684 10681 10678 10676 10672 10669 10666 10663 10659 10655 10655 10652 10650 10649 10648 10642 10642 10643 10645 10644 10643 10641 10635 10633 10634 10631
10733 10728 10722 10721 10723 10722 10719 10718 10711 10706 10711 10710 10707 10707 10705 10704 10702 10700 10695 10691 10687 10682 10677 10674 10670 10666 10662 10657 10654 10651 10647 10641 10638 10633 10632 10631 10628 10627 10629 10626 10626 10624 10625 10623 10619 10615 10610 10612 10611
10727 10722 10720 10712 10714 10715 10709 10708 10705 10702 10701 10700 10699 10695 10694 10692 10690 10687 10684 10680 10676 10672 10667 10662 10657 10652 10645 10640 10635 10631 10628 10624 10621 10620 10615 10615 10613 10609 10605 10606 10604 10602 10603 10603 10602 10598 10597 10594 10588
10718 10715 10711 10709 10704 10705 10704 10699 10697 10697 10694 10691 10687 10686 10682 10678 10675 10672 10669 10666 10663 10659 10655 10649 10641 10631 10622 10616 10611 10606 10604 10599 10596 10597 10595 10592 10592 10587 10585 10584 10582 10581 10579 10580 10580 10580 10578 10576 10571
10708 10708 10704 10699 10700 10696 10692 10697 10689 10690 10684 10679 10675 10670 10667 10663 10660 10657 10654 10650 10644 10639 10635 10629 10622 10614 10606 10595 10586 10579 10574 10572 10568 10566 10567 10568 10564 10564 10561 10561 10563 10561 10561 10556 10553 10554 10554 10558 10551
10702 10697 10695 10694 10691 10693 10684 10684 10683 10679 10675 10670 10664 10659 10655 10652 10648 10644 10639 10633 10626 10620 10612 10603 10597 10590 10583 10575 10567 10556 10547 10540 10534 10530 10526 10525 10532 10553 10533 10534 10539 10543 10545 10546 10540 10529 10529 10536 10532
10691 10689 10687 10684 10683 10682 10678 10673 10672 10670 10663 10658 10653 10649 10645 10640 10636 10630 10623 10617 10609 10600 10591 10581 10570 10559 10551 10542 10536 10531 10521 10511 10506 10500 10498 10497 10495 10498 10501 10502 10505 10515 10518 10530 10522 10507 10511 10510 10510
10676 10676 10677 10675 10672 10668 10667 10665 10660 10658 10650 10643 10639 10636 10630 10623 10615 10605 10596 10587 10577 10568 10559 10550 10539 10526 10511 10502 10493 10487 10483 10477 10472 10466 10462 10461 10462 10463 10466 10467 10476 10485 10499 10501 10494 10492 10492 10487 10488
10663 10661 10661 10661 10658 10654 10649 10651 10646 10641 10633 10626 10621 10612 10605 10596 10585 10575 10566 10560 10550 10538 10525 10514 10500 10490 10474 10461 10452 10443 10440 10433 10428 10427 10424 10421 10418 10420 10427 10430 10437 10448 10453 10463 10469 10466 10463 10459 10460
10651 10645 10642 10640 10636 10637 10632 10629 10625 10622 10612 10602 10595 10587 10577 10568 10560 10550 10539 10524 10513 10505 10495 10478 10460 10445 10429 10417 10406 10399 10394 10389 10383 10377 10375 10376 10372 10373 10382 10381 10392 10400 10409 10427 10432 10430 10433 10433 10434
10633 10631 10628 10625 10620 10622 10621 10607 10597 10597 10589 10581 10573 10565 10556 10547 10533 10516 10505 10495 10483 10468 10449 10431 10414 10401 10387 10371 10354 10346 10344 10342 10339 10333 10328 10327 10330 10333 10340 10344 10342 10356 10370 10381 10391 10398 10400 10406 10407
10625 10619 10610 10604 10599 10595 10597 10586 10576 10568 10562 10556 10548 10540 10529 10511 10496 10487 10476 10459 10436 10415 10401 10385 10366 10350 10332 10318 10308 10301 10297 10296 10294 10291 10289 10288 10294 10298 10303 10309 10311 10319 10331 10341 10351 10362 10369 10376 10383
10610 10602 10596 10591 10583 10576 10571 10574 10558 10550 10541 10531 10522 10511 10491 10481 10470 10456 10437 10410 10389 10366 10346 10331 10316 10301 10287 10278 10267 10261 10258 10258 10256 10254 10254 10255 10258 10261 10266 10271 10277 10287 10296 10308 10320 10328 10332 10345 10354